• In Hungary
  • List of Countries
  • For 7 days
  • Water Temperature
  • Satellite Maps
  • Weather Map
  • News
  • Weather Widgets
  • user-avatar
    Login

    Hourly Weather Kuhtinka

    Today, 16 November, Friday

    Time Temperature Precipitation Wind Pressure Humidity
    00:00 -4°C° 0 mm 2 mps 761 mmHg 41%
    01:00 -4°C° 0 mm 2 mps 761 mmHg 39%
    02:00 -2°C° 0 mm 1 mps 761 mmHg 37%
    03:00 -3°C° 0 mm 1 mps 762 mmHg 39%
    04:00 -3°C° 0 mm 1 mps 762 mmHg 37%
    05:00 -3°C° 0 mm 1 mps 762 mmHg 35%
    06:00 -3°C° 0 mm 1 mps 762 mmHg 34%
    07:00 -3°C° 0 mm 1 mps 763 mmHg 32%
    08:00 -3°C° 0 mm 1 mps 763 mmHg 31%
    09:00 -3°C° 0 mm 1 mps 763 mmHg 29%
    10:00 -2°C° 0 mm 1 mps 763 mmHg 26%
    11:00 -1°C° 0 mm 1 mps 763 mmHg 24%
    12:00 0°C° 0 mm 1 mps 764 mmHg 21%
    13:00 0°C° 0 mm 1 mps 764 mmHg 22%
    14:00 0°C° 0 mm 1 mps 763 mmHg 22%
    15:00 -1°C° 0 mm 0 mps 763 mmHg 23%
    16:00 -1°C° 0 mm 0 mps 763 mmHg 23%
    17:00 -2°C° 0 mm 0 mps 763 mmHg 24%
    18:00 -2°C° 0 mm 0 mps 764 mmHg 24%
    19:00 -2°C° 0 mm 0 mps 764 mmHg 24%
    20:00 -3°C° 0 mm 0 mps 763 mmHg 23%
    21:00 -3°C° 0 mm 0 mps 763 mmHg 23%
    22:00 -2°C° 0 mm 1 mps 763 mmHg 23%
    23:00 -2°C° 0 mm 1 mps 763 mmHg 22%

    Tomorrow, 17 November, Saturday

    Time Temperature Precipitation Wind Pressure Humidity
    00:00 -2°C° 0 mm 1 mps 763 mmHg 22%
    01:00 -2°C° 0 mm 1 mps 763 mmHg 22%
    02:00 -2°C° 0 mm 1 mps 762 mmHg 22%
    03:00 -2°C° 0 mm 1 mps 762 mmHg 22%
    04:00 -4°C° 0 mm 2 mps 762 mmHg 22%
    05:00 -4°C° 0 mm 2 mps 762 mmHg 23%
    06:00 -4°C° 0 mm 2 mps 761 mmHg 23%
    07:00 -4°C° 0 mm 2 mps 761 mmHg 24%
    08:00 -4°C° 0 mm 2 mps 761 mmHg 24%
    09:00 -4°C° 0 mm 2 mps 760 mmHg 24%
    10:00 -4°C° 0 mm 3 mps 760 mmHg 23%
    11:00 -1°C° 0 mm 3 mps 759 mmHg 23%
    12:00 0°C° 0 mm 3 mps 758 mmHg 22%
    13:00 -1°C° 0 mm 4 mps 758 mmHg 23%
    14:00 -1°C° 0 mm 4 mps 757 mmHg 24%
    15:00 -1°C° 0 mm 4 mps 756 mmHg 26%
    16:00 -2°C° 0 mm 4 mps 756 mmHg 27%
    17:00 -2°C° 0 mm 4 mps 755 mmHg 29%
    18:00 -3°C° 0 mm 4 mps 754 mmHg 31%
    19:00 -3°C° 0 mm 4 mps 754 mmHg 33%
    20:00 -4°C° 0 mm 5 mps 753 mmHg 34%
    21:00 -4°C° 0 mm 5 mps 752 mmHg 36%
    22:00 -4°C° 0 mm 5 mps 751 mmHg 40%
    23:00 -4°C° 0 mm 5 mps 751 mmHg 44%

    Day after tomorrow, 18 November, Sunday

    Time Temperature Precipitation Wind Pressure Humidity
    00:00 -4°C° 0 mm 5 mps 750 mmHg 48%
    01:00 -4°C° 0.2 mm 5 mps 749 mmHg 57%
    02:00 -4°C° 0.2 mm 5 mps 748 mmHg 66%
    03:00 -4°C° 0.2 mm 5 mps 748 mmHg 75%
    04:00 -4°C° 0.1 mm 5 mps 747 mmHg 76%
    05:00 -4°C° 0.1 mm 5 mps 746 mmHg 76%
    06:00 -3°C° 0.1 mm 4 mps 745 mmHg 77%
    07:00 -3°C° 0.1 mm 4 mps 745 mmHg 79%
    08:00 -3°C° 0.1 mm 4 mps 745 mmHg 81%
    09:00 -3°C° 0.1 mm 4 mps 745 mmHg 83%
    10:00 -3°C° 0 mm 4 mps 745 mmHg 83%
    11:00 -1°C° 0 mm 3 mps 744 mmHg 84%
    12:00 -1°C° 0 mm 3 mps 744 mmHg 84%
    13:00 -1°C° 0 mm 3 mps 744 mmHg 84%
    14:00 -1°C° 0 mm 3 mps 744 mmHg 85%
    15:00 -1°C° 0 mm 2 mps 744 mmHg 85%
    16:00 -1°C° 0 mm 2 mps 744 mmHg 87%
    17:00 -2°C° 0 mm 2 mps 745 mmHg 89%
    18:00 -2°C° 0 mm 2 mps 745 mmHg 91%
    19:00 -2°C° 0 mm 2 mps 745 mmHg 91%
    20:00 0°C° 0 mm 1 mps 745 mmHg 91%
    21:00 0°C° 0 mm 1 mps 745 mmHg 91%
    22:00 0°C° 0 mm 1 mps 745 mmHg 92%
    23:00 0°C° 0 mm 1 mps 746 mmHg 92%

    19 November, Monday

    Time Temperature Precipitation Wind Pressure Humidity
    00:00 0°C° 0 mm 1 mps 746 mmHg 92%
    01:00 0°C° 0 mm 1 mps 746 mmHg 92%
    02:00 0°C° 0 mm 1 mps 747 mmHg 92%
    03:00 0°C° 0 mm 1 mps 747 mmHg 93%
    04:00 0°C° 0 mm 1 mps 747 mmHg 93%
    05:00 0°C° 0 mm 1 mps 748 mmHg 93%
    06:00 -1°C° 0 mm 1 mps 748 mmHg 93%
    07:00 0°C° 0 mm 1 mps 748 mmHg 92%
    08:00 0°C° 0 mm 1 mps 749 mmHg 91%
    09:00 -2°C° 0 mm 2 mps 750 mmHg 90%
    10:00 -2°C° 0 mm 2 mps 750 mmHg 85%
    11:00 -1°C° 0 mm 2 mps 751 mmHg 79%
    12:00 -1°C° 0 mm 2 mps 751 mmHg 74%
    13:00 -1°C° 0 mm 2 mps 752 mmHg 71%
    14:00 -1°C° 0 mm 2 mps 752 mmHg 69%
    15:00 -1°C° 0 mm 2 mps 753 mmHg 66%
    16:00 -2°C° 0 mm 2 mps 753 mmHg 66%
    17:00 -4°C° 0 mm 3 mps 753 mmHg 66%
    18:00 -5°C° 0 mm 3 mps 754 mmHg 67%
    19:00 -5°C° 0 mm 3 mps 754 mmHg 65%
    20:00 -5°C° 0 mm 3 mps 754 mmHg 64%
    21:00 -5°C° 0 mm 3 mps 755 mmHg 63%
    22:00 -5°C° 0 mm 3 mps 755 mmHg 63%
    23:00 -5°C° 0 mm 3 mps 755 mmHg 62%

    20 November, Tuesday

    Time Temperature Precipitation Wind Pressure Humidity
    00:00 -5°C° 0 mm 3 mps 756 mmHg 62%
    01:00 -5°C° 0 mm 3 mps 756 mmHg 61%
    02:00 -5°C° 0 mm 3 mps 756 mmHg 61%
    03:00 -5°C° 0 mm 3 mps 756 mmHg 60%
    04:00 -5°C° 0 mm 3 mps 756 mmHg 59%
    05:00 -5°C° 0 mm 3 mps 756 mmHg 58%
    06:00 -6°C° 0 mm 3 mps 756 mmHg 57%
    07:00 -6°C° 0 mm 3 mps 756 mmHg 56%
    08:00 -6°C° 0 mm 3 mps 756 mmHg 55%
    09:00 -6°C° 0 mm 3 mps 756 mmHg 53%
    10:00 -5°C° 0 mm 3 mps 756 mmHg 50%
    11:00 -4°C° 0 mm 3 mps 756 mmHg 47%
    12:00 -2°C° 0 mm 3 mps 756 mmHg 45%
    13:00 -2°C° 0 mm 3 mps 755 mmHg 46%
    14:00 -2°C° 0 mm 3 mps 755 mmHg 47%
    15:00 -2°C° 0 mm 3 mps 755 mmHg 48%
    16:00 -4°C° 0 mm 3 mps 755 mmHg 50%
    17:00 -4°C° 0 mm 3 mps 754 mmHg 51%
    18:00 -4°C° 0 mm 3 mps 754 mmHg 53%
    19:00 -4°C° 0 mm 3 mps 754 mmHg 53%
    20:00 -4°C° 0 mm 3 mps 754 mmHg 53%
    21:00 -4°C° 0 mm 3 mps 754 mmHg 53%
    22:00 -4°C° 0 mm 3 mps 754 mmHg 53%
    23:00 -4°C° 0 mm 3 mps 753 mmHg 53%

    21 November, Wednesday

    Time Temperature Precipitation Wind Pressure Humidity
    00:00 -3°C° 0 mm 2 mps 753 mmHg 53%
    01:00 -3°C° 0 mm 2 mps 753 mmHg 53%
    02:00 -3°C° 0 mm 2 mps 753 mmHg 53%
    03:00 -4°C° 0 mm 2 mps 752 mmHg 53%
    04:00 -4°C° 0 mm 2 mps 752 mmHg 53%
    05:00 -5°C° 0 mm 3 mps 752 mmHg 53%
    06:00 -5°C° 0 mm 3 mps 751 mmHg 53%
    07:00 -5°C° 0 mm 3 mps 751 mmHg 53%
    08:00 -5°C° 0 mm 3 mps 751 mmHg 54%
    09:00 -5°C° 0 mm 3 mps 751 mmHg 54%
    10:00 -5°C° 0 mm 3 mps 751 mmHg 53%
    11:00 -4°C° 0 mm 3 mps 750 mmHg 51%
    12:00 -2°C° 0 mm 3 mps 750 mmHg 50%
    13:00 -2°C° 0 mm 3 mps 750 mmHg 51%
    14:00 -2°C° 0 mm 3 mps 749 mmHg 53%
    15:00 -2°C° 0 mm 3 mps 749 mmHg 55%
    16:00 -4°C° 0 mm 4 mps 749 mmHg 56%
    17:00 -4°C° 0 mm 4 mps 748 mmHg 58%
    18:00 -5°C° 0 mm 4 mps 748 mmHg 60%
    19:00 -5°C° 0 mm 4 mps 748 mmHg 61%
    20:00 -5°C° 0 mm 4 mps 747 mmHg 62%
    21:00 -5°C° 0 mm 4 mps 747 mmHg 64%
    22:00 -5°C° 0.2 mm 4 mps 746 mmHg 67%
    23:00 -6°C° 0.2 mm 5 mps 746 mmHg 71%
    Show more